| time (UTC) | temp F | wind direction | speed knots | gust knots | rain 1hr in | rain 24hr in | rain mn in | humidity % | barometer mb |
| 20260905061656 | 76 | 0.0 | 0.0 | 0.00 | 0.00 | 0.00 | 68 | 1016.4 | |
| 20260905060348 | 75 | 0.0 | 0.0 | 0.00 | 0.00 | 0.00 | 70 | 1016.3 | |
| 20260905055345 | 76 | 0.0 | 0.9 | 0.00 | 0.00 | 0.00 | 68 | 1016.2 | |
| 20260905054340 | 73 | 0.0 | 0.0 | 0.00 | 0.00 | 0.00 | 71 | 1016.1 | |
| 20260905053340 | 70 | 0.0 | 0.0 | 0.00 | 0.00 | 0.00 | 76 | 1016.1 | |
| 20260905052336 | 70 | 0.0 | 0.0 | 0.00 | 0.00 | 0.00 | 76 | 1016.0 | |
| 20260905051335 | 70 | 0.0 | 0.0 | 0.00 | 0.00 | 0.00 | 75 | 1015.9 | |
| 20260905050325 | 70 | 0.0 | 0.0 | 0.00 | 0.00 | 0.00 | 74 | 1015.8 | |
| 20260905045323 | 70 | 0.0 | 0.0 | 0.00 | 0.00 | 0.00 | 74 | 1015.7 | |
| 20260905044320 | 70 | 0.0 | 0.0 | 0.00 | 0.00 | 0.00 | 74 | 1015.5 | |
| 20260905042322 | 71 | 0.0 | 0.0 | 0.00 | 0.00 | 0.00 | 73 | 1015.2 | |
| 20260905041320 | 71 | 0.0 | 0.0 | 0.00 | 0.00 | 0.00 | 72 | 1015.4 | |
| 20260905040315 | 70 | 0.0 | 0.0 | 0.00 | 0.00 | 0.00 | 72 | 1015.5 | |
| 20260905035331 | 71 | 0.0 | 0.0 | 0.00 | 0.00 | 0.00 | 72 | 1015.7 | |
| 20260905034303 | 71 | 0.0 | 0.0 | 0.00 | 0.00 | 0.00 | 71 | 1015.6 | |
| 20260905033258 | 71 | 0.0 | 0.0 | 0.00 | 0.00 | 0.00 | 72 | 1015.7 | |
| 20260905032248 | 71 | 0.0 | 0.0 | 0.00 | 0.00 | 0.00 | 70 | 1016.0 | |
| 20260905031244 | 71 | 0.0 | 0.0 | 0.00 | 0.00 | 0.00 | 70 | 1016.2 | |
| 20260905030321 | 71 | 0.0 | 0.9 | 0.00 | 0.00 | 0.00 | 70 | 1015.9 | |
| 20260905025237 | 70 | 315 | 1.7 | 2.6 | 0.00 | 0.00 | 0.00 | 69 | 1015.7 |
| 20260905024233 | 71 | 0 | 0.0 | 0.9 | 0.00 | 0.00 | 0.00 | 66 | 1015.7 |
| 20260905023223 | 71 | 0.0 | 0.0 | 0.00 | 0.00 | 0.00 | 65 | 1015.8 | |
| 20260905022222 | 71 | 0.0 | 0.0 | 0.00 | 0.00 | 0.00 | 65 | 1015.9 | |
| 20260905020322 | 71 | 0.0 | 0.0 | 0.00 | 0.00 | 0.00 | 64 | 1016.0 | |
| 20260905014918 | 71 | 0.0 | 0.0 | 0.00 | 0.00 | 0.00 | 62 | 1016.2 | |
| 20260905013101 | 72 | 0.0 | 0.0 | 0.00 | 0.00 | 0.00 | 58 | 1016.1 | |
| 20260905012057 | 72 | 0.0 | 0.0 | 0.00 | 0.00 | 0.00 | 57 | 1016.1 | |
| 20260905005257 | 73 | 0.0 | 0.0 | 0.00 | 0.00 | 0.00 | 58 | 1016.4 | |
| 20260905002831 | 74 | 0.0 | 0.0 | 0.00 | 0.00 | 0.00 | 57 | 1016.5 | |
| 20260905001325 | 74 | 0.0 | 0.0 | 0.00 | 0.00 | 0.00 | 58 | 1016.5 | |
| 20260905000321 | 75 | 0.0 | 0.0 | 0.00 | 0.00 | 0.00 | 58 | 1016.6 | |
| 20260904234057 | 76 | 0.0 | 0.0 | 0.00 | 0.00 | 0.00 | 53 | 1016.8 | |
| 20260904232242 | 76 | 0.0 | 0.0 | 0.00 | 0.00 | 0.00 | 53 | 1016.7 | |
| 20260904224544 | 77 | 0.0 | 0.0 | 0.00 | 0.00 | 0.00 | 51 | 1016.7 | |
| 20260904223121 | 77 | 0.0 | 0.0 | 0.00 | 0.00 | 0.00 | 51 | 1016.8 | |
| 20260904221657 | 78 | 0.0 | 0.0 | 0.00 | 0.00 | 0.00 | 50 | 1016.9 | |
| 20260904220158 | 78 | 0.0 | 0.0 | 0.00 | 0.00 | 0.00 | 48 | 1016.7 | |
| 20260904215152 | 78 | 0.0 | 0.0 | 0.00 | 0.00 | 0.00 | 47 | 1016.8 | |
| 20260904212724 | 79 | 0.0 | 0.0 | 0.00 | 0.00 | 0.00 | 45 | 1017.0 | |
| 20260904211657 | 79 | 0.0 | 0.0 | 0.00 | 0.00 | 0.00 | 45 | 1017.0 | |
| 20260904205718 | 80 | 0.0 | 0.0 | 0.00 | 0.00 | 0.00 | 43 | 1017.2 | |
| 20260904203713 | 80 | 0.0 | 0.0 | 0.00 | 0.00 | 0.00 | 43 | 1017.4 | |
| 20260904202729 | 81 | 0.0 | 0.0 | 0.00 | 0.00 | 0.00 | 42 | 1017.2 | |
| 20260904201658 | 81 | 292 | 0.0 | 0.9 | 0.00 | 0.00 | 0.00 | 41 | 1017.3 |
| 20260904200329 | 82 | 315 | 0.9 | 1.7 | 0.00 | 0.00 | 0.00 | 40 | 1017.0 |
| 20260904195325 | 82 | 0.0 | 0.9 | 0.00 | 0.00 | 0.00 | 40 | 1017.1 | |
| 20260904194322 | 82 | 315 | 0.0 | 0.9 | 0.00 | 0.00 | 0.00 | 40 | 1017.1 |
| 20260904192328 | 83 | 0.0 | 0.0 | 0.00 | 0.00 | 0.00 | 41 | 1017.0 | |
| 20260904191326 | 84 | 0.0 | 0.0 | 0.00 | 0.00 | 0.00 | 40 | 1017.1 | |
| 20260904190322 | 84 | 315 | 0.9 | 2.6 | 0.00 | 0.00 | 0.00 | 41 | 1017.0 |
| 20260904184837 | 84 | 315 | 0.9 | 1.7 | 0.00 | 0.00 | 0.00 | 48 | 1017.0 |
| 20260904183813 | 85 | 0.0 | 0.0 | 0.00 | 0.00 | 0.00 | 50 | 1016.8 | |
| 20260904182811 | 85 | 0.0 | 0.0 | 0.00 | 0.00 | 0.00 | 50 | 1016.7 | |
| 20260904181332 | 86 | 0.0 | 0.0 | 0.00 | 0.00 | 0.00 | 48 | 1016.5 | |
| 20260904180329 | 87 | 0.0 | 0.0 | 0.00 | 0.00 | 0.00 | 47 | 1016.4 | |
| 20260904175324 | 87 | 0.0 | 0.0 | 0.00 | 0.00 | 0.00 | 46 | 1016.4 | |
| 20260904174321 | 88 | 0.0 | 0.0 | 0.00 | 0.00 | 0.00 | 45 | 1016.5 | |
| 20260904172323 | 89 | 0.0 | 0.0 | 0.00 | 0.00 | 0.00 | 44 | 1016.2 | |
| 20260904171313 | 89 | 0.0 | 0.0 | 0.00 | 0.00 | 0.00 | 44 | 1016.4 | |
| 20260904170302 | 90 | 0.0 | 0.9 | 0.00 | 0.00 | 0.00 | 43 | 1016.2 | |
| 20260904165258 | 90 | 0.0 | 0.9 | 0.00 | 0.00 | 0.00 | 43 | 1016.6 | |
| 20260904163400 | 91 | 0.0 | 0.0 | 0.00 | 0.00 | 0.00 | 39 | 1016.6 | |
| 20260904162357 | 91 | 0.0 | 0.0 | 0.00 | 0.00 | 0.00 | 39 | 1016.4 | |
| 20260904161348 | 91 | 0.0 | 0.0 | 0.00 | 0.00 | 0.00 | 42 | 1016.7 | |
| 20260904160337 | 91 | 0.0 | 0.0 | 0.00 | 0.00 | 0.00 | 42 | 1016.5 | |
| 20260904155334 | 91 | 315 | 0.9 | 1.7 | 0.00 | 0.00 | 0.00 | 42 | 1016.7 |
| 20260904154327 | 92 | 0.0 | 0.0 | 0.00 | 0.00 | 0.00 | 41 | 1016.8 | |
| 20260904153324 | 92 | 315 | 0.0 | 0.9 | 0.00 | 0.00 | 0.00 | 41 | 1016.7 |
| 20260904152402 | 92 | 0.0 | 0.0 | 0.00 | 0.00 | 0.00 | 39 | 1016.8 | |
| 20260904150350 | 92 | 0.0 | 0.0 | 0.00 | 0.00 | 0.00 | 38 | 1017.0 | |
| 20260904145410 | 92 | 0.0 | 0.9 | 0.00 | 0.00 | 0.00 | 39 | 1017.0 | |
| 20260904144342 | 92 | 315 | 0.0 | 0.9 | 0.00 | 0.00 | 0.00 | 39 | 1017.2 |
| 20260904143339 | 92 | 0.0 | 0.9 | 0.00 | 0.00 | 0.00 | 40 | 1017.1 | |
| 20260904142335 | 90 | 315 | 2.6 | 5.2 | 0.00 | 0.00 | 0.00 | 43 | 1017.0 |
| 20260904141326 | 92 | 0.0 | 0.0 | 0.00 | 0.00 | 0.00 | 42 | 1017.1 | |
| 20260904131256 | 91 | 337 | 0.0 | 1.7 | 0.00 | 0.00 | 0.00 | 44 | 1017.7 |
| 20260904125437 | 91 | 315 | 0.0 | 1.7 | 0.00 | 0.00 | 0.00 | 44 | 1018.1 |
| 20260904124434 | 90 | 337 | 0.0 | 0.9 | 0.00 | 0.00 | 0.00 | 45 | 1017.9 |
| 20260904123430 | 89 | 165 | 2.6 | 5.2 | 0.00 | 0.00 | 0.00 | 46 | 1018.1 |
| 20260904122447 | 87 | 315 | 2.6 | 5.2 | 0.00 | 0.00 | 0.00 | 48 | 1018.1 |
| 20260904121423 | 91 | 157 | 0.9 | 2.6 | 0.00 | 0.00 | 0.00 | 44 | 1018.4 |
| 20260904120419 | 91 | 315 | 0.9 | 1.7 | 0.00 | 0.00 | 0.00 | 45 | 1018.4 |
| 20260904115415 | 91 | 0.0 | 0.0 | 0.00 | 0.00 | 0.00 | 45 | 1018.3 | |
| 20260904114413 | 88 | 112 | 0.0 | 1.7 | 0.00 | 0.00 | 0.00 | 48 | 1018.6 |
| 20260904113409 | 87 | 315 | 3.5 | 5.2 | 0.00 | 0.00 | 0.00 | 48 | 1018.9 |
| 20260904111902 | 88 | 315 | 1.7 | 3.5 | 0.00 | 0.00 | 0.00 | 46 | 1018.8 |
| 20260904110112 | 90 | 315 | 0.0 | 2.6 | 0.00 | 0.00 | 0.00 | 44 | 1019.0 |
| 20260904105109 | 86 | 337 | 0.0 | 1.7 | 0.00 | 0.00 | 0.00 | 50 | 1019.1 |
| 20260904104058 | 86 | 112 | 0.0 | 1.7 | 0.00 | 0.00 | 0.00 | 50 | 1018.8 |
| 20260904102701 | 86 | 0 | 0.9 | 3.5 | 0.00 | 0.00 | 0.00 | 50 | 1019.3 |
| 20260904101657 | 85 | 315 | 2.6 | 3.5 | 0.00 | 0.00 | 0.00 | 52 | 1019.3 |
| 20260904095658 | 87 | 90 | 0.9 | 2.6 | 0.00 | 0.00 | 0.00 | 49 | 1019.4 |
| 20260904094410 | 84 | 292 | 0.9 | 1.7 | 0.00 | 0.00 | 0.00 | 53 | 1019.5 |
| 20260904092912 | 86 | 292 | 0.9 | 1.7 | 0.00 | 0.00 | 0.00 | 52 | 1019.7 |
| 20260904091902 | 85 | 0.0 | 0.9 | 0.00 | 0.00 | 0.00 | 53 | 1019.5 | |
| 20260904090859 | 85 | 135 | 0.9 | 1.7 | 0.00 | 0.00 | 0.00 | 52 | 1019.7 |
| 20260904085530 | 83 | 0.0 | 0.0 | 0.00 | 0.00 | 0.00 | 55 | 1019.5 | |
| 20260904084525 | 83 | 112 | 0.0 | 1.7 | 0.00 | 0.00 | 0.00 | 55 | 1019.5 |
| 20260904083521 | 83 | 0.0 | 0.9 | 0.00 | 0.00 | 0.00 | 55 | 1019.6 | |
| 20260904082033 | 80 | 315 | 1.7 | 3.5 | 0.00 | 0.00 | 0.00 | 58 | 1019.6 |
| 20260904081030 | 81 | 292 | 0.9 | 1.7 | 0.00 | 0.00 | 0.00 | 58 | 1019.4 |
| 20260904080024 | 82 | 292 | 0.0 | 1.7 | 0.00 | 0.00 | 0.00 | 55 | 1019.5 |
| 20260904075042 | 80 | 315 | 2.6 | 3.5 | 0.00 | 0.00 | 0.00 | 58 | 1019.7 |
| 20260904074015 | 81 | 315 | 1.7 | 2.6 | 0.00 | 0.00 | 0.00 | 56 | 1019.4 |
| 20260904073012 | 80 | 292 | 1.7 | 1.7 | 0.00 | 0.00 | 0.00 | 58 | 1019.2 |
| 20260904072009 | 78 | 292 | 0.9 | 1.7 | 0.00 | 0.00 | 0.00 | 60 | 1019.3 |
| 20260904071005 | 78 | 315 | 1.7 | 1.7 | 0.00 | 0.00 | 0.00 | 61 | 1019.1 |
| 20260904070124 | 77 | 292 | 0.9 | 1.7 | 0.00 | 0.00 | 0.00 | 61 | 1019.1 |
| 20260904065501 | 77 | 292 | 1.7 | 2.6 | 0.00 | 0.00 | 0.00 | 61 | 1019.3 |
| 20260904064458 | 76 | 315 | 0.9 | 2.6 | 0.00 | 0.00 | 0.00 | 64 | 1018.9 |
| 20260904063049 | 75 | 315 | 0.9 | 1.7 | 0.00 | 0.00 | 0.00 | 65 | 1019.1 |